Weather in Vilanculos

Mozambique     21°59′59″S   35°19′08″E
temp.,
°C
wind,
m/s
gust,
m/s
humid.,
%
clouds,
%
prec.,
mm/h
press.,
hPa
HPBL,
m
18 may, tue
tue1823:00+22s48910 0.1 1019309
02:00+21s37915 0.1 1018304
05:00+21s378793 0.0 1019297
08:00+24s47744 0.0 1022444
11:00+28se565562 0.2 10221536
14:00+26se776110 0.3 1020818
17:00+24se69680 0.0 1021844
20:00+23se586811 0.0 1022684
19 may, wed
wed1923:00+23se58687 0.0 1022679
02:00+22se47698 0.0 1021581
05:00+21sse47730 0.0 1021441
08:00+25se46550 0.0 10221297
11:00+27ese55480 0.0 10221832
14:00+26e55461 0.0 10191462
17:00+23ese46580 0.0 1020513
20:00+23ese47590 0.0 1020498
20 may, thu
thu2023:00+23e46600 0.0 1020465
02:00+21e24650 0.0 1019302
05:00+20ese14723 0.0 1019360
08:00+23s12560 0.0 1021489
11:00+27e43430 0.0 10201569
14:00+26e43460 0.0 10171136
17:00+23ene35600 0.0 1017315
20:00+22ene35630 0.0 1018265
21 may, fri
fri2123:00+21nne34670 0.0 1018246
02:00+20n35720 0.0 1017214
05:00+18nnw24790 0.0 1017192
08:00+22nnw24640 0.0 1019239
11:00+28nne43420 0.0 10171263
14:00+28ne54500 0.0 1015932
17:00+24nne57700 0.0 1016352
20:00+22nne36780 0.0 1018185
22 may, sat
sat2223:00+21nne24800 0.0 1019157
02:00+21ene13820 0.0 1019176
05:00+20s35890 0.0 1020182
08:00+23s47710 0.0 1023383
11:00+27se675374 0.1 10221673
14:00+26se685662 0.3 10221384
17:00+21sse711858 1.9 1023739
20:00+20s5119136 3.8 1025576